Погода в Херсоне

Погода в Херсоне : погода сейчас, прогноз погоды и архив. Всё, что Вы хотите узнать о погоде в Херсоне!

Хотите узнать прогноз погоды в Херсоне? Тогда Вам сюда: Погода в Херсоне

Поиск расширенной информации на нашем сайте:

Другие новости

Новости СМИ2

Главная страница сайта

Новости сайта

03.07.2017

Напоминаем, что на нашем специализированном сайте Метеоцентр.Азия вы можете получить высокодетализированные автоматические прогнозы погоды по пунктам России, СНГ и мира в авиационном формате (включающие направление и скорость ветра, видимость, явления погоды, количество и форму облачности, нижнюю и верхнюю границу облачности).

Рекомендуем: Какие банки выдают кредиты в Херсоне.

Погода в Херсоне - сегодня

Время (UTC), дата Ветер
(°,м/с) 
Видим.   Явления Облачность Т
(°С)
Тd
(°С)
f(%) Тe
(°С)
Pmin
(гПа)
dP
(гПа)
Po
(мм)
O2
(г/м3)
Тmin Tmax R s Состояние
почвы
06 21.02.18 060 (СВ) 4000 м  дымка  ясно 
-4.2 -5.4 91 -6  1023.5  762  313  -5         
09 21.02.18 060 (СВ) 10 км    8/4 600 м средняя 
[Sc|Ac trans]
-0.3 -3.4 80 -3  1022.9  -0.4  762  308           
12 21.02.18 070 (В) 10 км    8/4 600 м средняя 
[Sc|Ac trans]
+2.1 -3.7 65 1021.4  -1.5  761  305           
15 21.02.18 070 (В) 10 км    9/3 600 м средняя 
[Sc|Ac trans]
+0.9 -4.4 68 -1  1020.8  -0.6  761  306           
18 21.02.18 070 (В) 10 км    4/4 600 м 
[Sc]
-2.1 -4.8 82 -5  1021.2  0.3  761  309           
21 21.02.18 050 (СВ) 4000 м  дымка  4/3 600 м средняя 
[Sc|Ac trans]
-2.9 -3.9 93 -6  1021.6  0.4  761  310           
00 22.02.18 070 (В) 4000 м  дымка  8/3 600 м средняя 
[Sc|Ac trans]
-2.7 -4 91 -5  1021.1  -0.5  761  310           
03 22.02.18 060 (СВ) 4000 м  дымка  4/4 600 м 
[Sc]
-3.8 -4.6 94 -6  1020.7  -0.4  760  311           
06 22.02.18 060 (СВ) 4000 м  дымка  10/10 600 м 
[Sc]
-2.8 -4.1 91 -6  1021.1  0.4  761  310  -4.3         
09 22.02.18 050 (СВ) 10 км    10/10 600 м 
[Sc]
-0.7 -5 73 -4  1020.8  -0.2  761  308           
12 22.02.18 070 (В) 10 км    10/10 600 м 
[Sc]
-0.1 -5.7 66 -3  1020.7  -0.1  760  307           
15 22.02.18 050 (СВ) 10 км    10/10 600 м 
[Sc]
-0.4 -5.3 69 -3  1020.3  -0.4  760  307           
18 22.02.18 060 (СВ) 10 км    10/10 600 м 
[Sc]
-0.5 -4.7 73 -3  1020.6  0.3  760  307           
21 22.02.18 060 (СВ) 10 км    10/10 600 м 
[Sc]
-0.6 -3.8 79 -3  1020.3  -0.3  760  307           
00 23.02.18 060 (СВ) 4000 м  слаб. ливневой снег  10/10 600 м кучево-дожд. 
[Cb cap]
-1.7 -2.2 96 -4  1020.5  0.1  760  309      0.9     
03 23.02.18 040 (СВ) 4000 м  слаб. ливневой снег  10/10 600 м кучево-дожд. 
[Cb cap]
-2.5 -3.1 96 -6  1019.9  -0.6  760  309           
06 23.02.18 050 (СВ) 4000 м  слаб. ливневой снег  10/10 600 м кучево-дожд. 
[Cb cap]
-3.5 -4 96 -7  1020.2  0.3  760  311  -3.5       
09 23.02.18 040 (СВ) 4000 м  слаб. ливневой снег  10/8 300 м кучево-дожд., средняя 
[Cb cap|Ac cuf]
-2.8 -4.1 91 -6  1020.6  0.4  760  310           
12 23.02.18 050 (СВ) 10 км  {ливн. осадки}  10/8 600 м кучево-дожд., средняя 
[Cb calv|Ac cuf]
-1.2 -5.2 74 -3  1020.1  -0.5  760  308      0.3     
15 23.02.18 070 (В) 10 км    9/4 600 м средняя 
[Sc diur, vesp|Ac und]
-1.2 -4.4 79 -2  1019.9  -0.2  760  308           
18 23.02.18 090 (В) 10 км    10/8 600 м кучево-дожд., средняя 
[Cb calv|Ac cuf]
-1.6 -4.2 82 -4  1019.8  -0.1  760  308      0.3     
21 23.02.18 100 (В) 10 км    10/8 600 м кучево-дожд., средняя 
[Cb calv|Ac cuf]
-2.2 -5.1 80 -4  1019.5  -0.3  759  309           
00 24.02.18 080 (В) 10 км  слаб. ливневой снег  10/8 300 м кучево-дожд., средняя 
[Cb cap|Ac cuf]
-3.8 -6.4 82 -5  1018.9  -0.6  759  311      0.0     
03 24.02.18 080 (В) 4000 м  слаб. ливневой снег  10/8 300 м кучево-дожд., средняя 
[Cb cap|Ac cuf]
-5 -6.3 91 -6  1017.6  -1.3  758  312           
06 24.02.18 090 (В) 4000 м  слаб. ливневой снег  10/10 300 м кучево-дожд. 
[Cb cap]
-6.1 -7.2 92 -9  1017.4  -0.3  758  313  -6.3       
Время (UTC), дата Ветер
(°,м/с) 
Видим.   Явления Облачность Т
(°С)
Тd
(°С)
f(%) Тe
(°С)
Pmin
(гПа)
dP
(гПа)
Po
(мм)
O2
(г/м3)
Тmin Tmax R s Состояние
почвы

Для получения пояснительной информации подведите курсор к названию столбца.

ПОГОДА в Херсоне - архив

Всё, что Вы хотите узнать о погоде в Херсоне - удобно и подробно!

Выберите нужную дату (начиная с 1 января 2015* года) и нажмите кнопку "Найти".
Будут отображены архивные сводки погоды по пункту Херсон, начиная с указанной даты.


Отображать данные в формате CSV (для использования в таблицах Excel)


Внимание! Наш архив погоды предназначен исключительно для личного некоммерческого использования в познавательных целях. Если Вам необходимы официальные справки о состоянии погоды (для производственных, юридических, коммерческих и т.п. целей), обращайтесь в органы Росгидромета.

*Примечание: данная дата относится к архиву по метеостанциям СССР (Россия, СНГ, Балтия).
Архив по метеостанциям Зарубежной Европы и Азии (кроме Китая) хранится 10 дней, по другим регионам земного шара (Китай, Африка, Америка, Австралия, Океания) - 1 день.

Херсон - район местоположения метеостанции


Название, широта, долгота, высота метеостанции:
Херсон 46.6°ш. 32.6°д. 54 м над ур. моря [Украина]

Дополнительная информация

В oтличие oт бoльшинства пoгoдных сайтoв мы публикуем пoдрoбную метеoинфoрмацию в детальнoм прoфессиoнальнoм фoрмате.

Характеристики температуры и влажнoсти вoздуха измеряются на высoте 2 м в тени вдали oт зданий и деревьев.
Скoрoсть ветра измеряется на высoте 10 м (на урoвне рoста челoвека скoрoсть ветра ниже в 1.5-2 раза). Если метеoстанция нахoдится в гoрoде или в лесу, тo скoрoсть ветра занижена на 2-4 м/с пo сравнению с oткрытым местoм. Скoрoсть ветра над акватoриями крупных рек и oзёр, а также на вершинах хoлмoв на 2-5 м/с выше, чем в oбычных услoвиях.
Атмoсфернoе давление в разных тoчках местнoсти мoжет значительнo oтличаться oт давления на метеoстанции, в зависимoсти oт услoвий рельефа (при пoдъёме на 10 м давление пoнижается примернo на 1 мм рт.ст.).